Location: Dixon
(37.9953°N, 92.0959°W)
Time: 09:30:51
(UTC+00:00)

ARIANE 6 FM1 Upper Stage - Pass Details

Date: 13 December 2025
Orbit: 522 x 610 km, 62.0° (Epoch: 18 January)

Event Time Altitude Azimuth Distance (km) Brightness Sun altitude
Rises 11:16:11 0° 166° (SSE) 2,706 6.5 -22.8°
Reaches altitude 10° 11:19:49 10° 132° (SE) 1,797 6.1 -22.1°
Maximum altitude 11:21:10 11° 112° (ESE) 1,698 6.2 -21.9°
Drops below altitude 10° 11:22:31 10° 92° (E) 1,787 6.3 -21.6°
Sets 11:26:05 0° 59° (ENE) 2,668 6.8 -20.9°
